Wind_Speed
18 17 16 15 14 11 8 6 5 5 6 8 8 10 10 10 11 12 12 13 12 11 11 10 9 8 7 6 5 5 4 3 2 1 1 1 1 0 0 1 1 1 1
16 15 15 14 12 10 8 6 3 4 5 7 8 10 11 10 11 11 12 13 12 12 12 10 9 9 8 7 7 6 5 5 4 3 3 2 2 1 1 1 1 1 2
16 15 15 14 11 9 7 5 3 3 5 6 8 9 10 10 10 11 12 12 12 13 13 12 10 9 9 8 8 8 7 6 6 5 4 4 3 3 2 2 2 2 2
16 15 13 11 9 8 6 5 4 3 4 5 6 8 9 10 11 10 11 11 12 13 12 12 11 10 10 9 9 9 9 8 7 6 6 6 5 4 4 4 4 4 4
16 14 11 9 8 7 6 5 3 3 3 3 5 8 9 10 10 10 11 12 13 13 13 13 12 11 11 10 10 10 10 10 9 8 8 8 7 7 6 6 6 6 7
14 11 9 8 8 6 5 5 4 3 2 3 4 6 8 9 10 10 11 12 12 13 14 14 14 13 12 12 12 11 12 11 11 11 10 10 10 9 9 9 9 9 9
12 9 8 8 7 7 6 4 4 3 2 3 5 6 7 8 9 10 11 12 12 13 13 14 14 14 14 13 13 13 13 13 13 13 13 12 12 12 12 12 12 12 12
10 8 7 7 7 7 6 4 4 4 3 3 4 5 6 6 7 9 10 12 12 12 13 14 14 14 14 15 14 14 14 15 15 15 14 14 14 14 15 15 15 16 16
9 7 7 7 7 7 5 4 4 3 3 3 4 5 5 5 6 8 9 11 12 13 13 14 15 15 15 16 16 15 15 16 16 16 16 16 16 17 18 18 18 18 19
9 8 8 7 7 5 4 4 4 4 4 4 4 5 6 6 7 8 10 11 12 13 14 14 14 15 15 16 17 17 17 16 17 18 18 19 19 20 21 21 21 21 21
10 9 8 7 7 6 4 4 4 4 4 5 5 5 6 7 8 9 10 12 13 13 14 15 16 17 17 17 17 18 18 18 18 19 19 20 21 22 22 22 23 23 24
10 9 8 7 7 7 6 6 5 5 5 6 7 7 7 8 9 10 11 12 14 14 15 15 16 17 18 18 18 18 19 19 20 20 21 22 22 23 23 24 25 25 25
12 11 10 9 9 9 8 8 7 7 7 8 8 9 10 10 11 11 11 11 13 14 15 16 17 18 19 19 19 20 21 22 22 23 24 24 24 24 25 25 26 27 28
14 13 12 12 11 11 11 10 10 9 9 9 10 11 11 11 11 11 11 12 13 14 15 16 17 19 19 20 20 21 22 22 23 24 25 26 27 26 27 27 28 29 30
15 15 14 13 13 13 12 12 11 11 11 11 12 12 12 12 12 12 13 13 14 15 16 17 18 20 21 22 22 23 23 23 24 25 26 27 29 29 29 29 30 31 32
17 16 15 15 14 14 14 13 13 13 12 13 13 13 13 13 13 13 13 14 14 15 16 17 18 19 20 21 22 23 24 24 25 26 27 29 30 31 31 31 32 33 33
20 19 17 16 16 16 15 15 15 15 14 14 14 14 14 14 14 14 15 15 16 17 17 17 18 18 19 20 22 23 25 26 26 27 29 30 30 31 32 33 34 34 34
22 21 19 18 18 18 17 17 17 17 17 17 17 16 16 15 16 15 16 17 18 18 18 19 19 20 21 22 23 24 26 27 28 29 30 30 30 31 32 33 34 34 34
23 22 22 21 20 20 20 20 20 20 19 19 19 18 17 17 17 17 18 19 19 19 20 20 21 22 23 24 25 27 27 28 28 29 30 30 30 30 32 33 34 34 34
23 23 24 23 23 23 22 21 21 21 21 21 20 20 19 19 19 19 19 20 21 21 22 23 23 23 24 25 26 27 27 28 28 28 28 30 30 31 33 34 35 35 35
25 25 25 25 25 25 24 23 22 23 23 22 22 22 21 21 21 22 22 21 22 22 23 23 24 24 25 26 26 26 27 27 27 28 29 30 30 31 33 34 35 35 36
27 26 26 25 26 26 26 25 25 25 25 25 25 24 24 24 23 23 23 23 23 23 24 24 25 26 26 26 27 27 27 28 28 29 30 31 32 32 33 34 35 36 37
27 27 27 26 26 26 26 26 26 26 26 26 27 27 26 25 25 25 25 25 25 26 26 26 26 27 27 27 28 28 29 29 30 31 32 33 33 33 35 35 36 37 38
28 28 28 28 27 27 27 26 27 27 27 27 27 27 28 27 27 26 26 27 27 27 27 28 28 28 27 28 29 29 30 31 32 33 34 34 34 34 35 36 36 37 38
29 29 28 27 27 27 27 27 27 28 28 28 28 28 28 28 27 27 27 28 28 28 29 29 29 28 28 29 29 30 30 32 33 33 34 35 35 35 35 36 38 39 41
30 29 28 27 26 27 28 28 28 28 28 28 27 27 26 27 27 27 28 28 28 28 28 27 28 28 28 29 30 31 32 32 33 33 34 35 36 37 37 38 38 39 39
Wind_Direction
321 324 327 330 329 329 321 301 286 278 260 243 233 223 221 220 215 214 214 213 215 218 220 220 222 223 226 227 223 220 221 220 218 225 229 244 247 263 54 47 42 23 11
322 324 327 328 330 328 320 304 297 280 265 240 231 221 219 219 213 213 213 215 218 219 217 220 225 227 233 232 231 230 228 223 226 231 232 242 253 265 283 324 339 342 341
320 322 322 323 328 328 323 319 300 294 278 241 229 221 222 216 216 217 216 215 218 217 219 224 227 228 233 235 235 232 230 230 235 239 243 245 246 256 270 296 307 319 325
319 319 320 321 326 327 320 310 294 286 282 243 229 224 223 221 219 219 216 216 216 217 221 224 226 229 234 236 235 233 233 236 240 245 249 252 256 261 270 278 289 302 306
318 317 316 316 319 323 318 311 303 287 277 244 226 225 223 224 224 223 222 220 219 222 225 227 229 229 232 234 235 234 235 238 242 247 250 253 260 265 268 273 281 289 293
318 316 315 313 316 317 316 306 298 286 266 240 227 226 229 226 226 224 223 219 219 223 226 231 232 232 232 235 239 241 242 243 246 249 251 256 261 265 268 272 277 281 285
314 314 317 316 311 314 318 305 294 285 266 248 235 234 233 227 224 223 221 221 222 223 227 232 234 235 235 237 242 247 250 249 251 252 254 257 261 265 269 274 278 280 283
309 311 317 317 314 310 309 300 301 288 272 259 247 238 231 228 224 221 223 225 225 227 234 237 238 238 240 241 246 251 253 254 254 255 257 259 262 267 271 275 279 281 282
303 303 314 314 317 309 304 300 301 295 266 253 252 246 238 233 226 224 226 228 230 232 237 241 243 243 245 245 247 251 253 254 255 257 258 259 264 269 272 275 278 280 283
303 305 312 314 315 315 309 305 305 294 282 266 255 249 242 239 237 235 236 236 237 239 241 244 246 245 248 252 254 255 254 257 259 259 260 262 266 271 273 274 277 280 282
300 299 305 309 310 309 310 308 312 310 297 280 269 257 251 251 254 249 248 247 247 248 249 248 248 247 249 254 256 254 255 259 261 262 266 269 271 273 273 274 277 279 281
291 295 298 298 298 303 302 296 303 306 298 289 281 273 266 265 268 262 258 256 254 255 255 254 253 250 252 256 259 261 260 261 264 266 268 270 272 276 275 275 277 279 281
288 287 290 293 290 291 295 293 292 293 293 294 291 283 278 276 275 270 269 265 260 260 259 256 257 256 257 261 264 265 263 265 266 267 269 270 273 275 275 275 277 279 280
284 283 282 284 287 289 289 289 288 291 295 296 293 290 283 277 276 272 272 271 268 267 265 264 264 261 260 262 264 265 265 267 268 270 271 271 272 275 276 279 280 280 281
279 280 281 281 284 286 288 288 289 292 293 295 295 292 288 282 276 273 274 272 270 271 269 269 268 265 264 266 266 267 267 268 270 272 273 276 276 276 278 279 280 282 283
275 277 278 278 281 284 286 286 287 292 294 296 297 295 290 284 279 275 278 275 274 276 275 274 273 272 271 270 271 271 271 272 274 276 278 280 280 279 280 281 282 283 284
273 274 275 275 277 279 280 282 284 288 290 293 295 294 291 287 283 281 281 280 278 278 281 279 278 278 277 276 275 277 277 278 278 279 280 282 283 282 282 284 285 286 286
270 271 273 274 275 275 277 280 280 283 285 287 291 293 293 289 288 285 284 283 282 281 284 282 281 282 281 279 279 280 280 280 280 280 282 283 284 284 285 287 286 286 287
267 268 270 272 273 274 275 277 277 278 281 283 286 290 290 289 288 287 285 283 283 282 282 282 283 284 283 282 282 283 282 282 283 282 282 284 286 286 287 288 287 287 287
269 270 269 270 271 272 273 275 276 275 278 280 282 285 288 287 287 287 287 287 285 284 283 283 284 286 288 286 283 283 283 283 283 284 284 285 286 286 287 287 288 289 289
270 271 271 272 271 271 270 272 275 275 277 278 280 283 285 285 286 287 287 287 288 286 286 287 287 288 289 288 287 286 285 286 286 286 287 287 289 290 289 289 290 290 290
269 270 271 272 272 272 271 272 274 275 276 277 278 281 282 283 285 286 286 287 288 288 288 288 288 289 290 289 288 287 286 288 289 289 289 289 291 292 293 292 292 292 292
268 269 270 271 272 272 270 271 271 273 275 276 277 279 282 284 284 284 286 287 287 287 287 286 287 288 289 289 289 288 287 288 289 289 290 292 291 292 294 294 294 294 294
267 270 271 271 270 270 270 270 271 273 275 276 278 279 280 282 282 281 283 285 286 287 286 286 287 288 288 287 287 287 287 287 289 290 292 294 293 294 295 295 295 295 295
266 268 270 270 270 268 268 270 270 271 274 275 277 278 278 278 279 282 284 285 286 286 286 287 286 287 289 289 289 289 288 289 291 292 293 293 294 295 295 296 296 296 297
265 267 268 267 266 267 268 269 271 272 273 276 277 276 278 279 280 282 284 286 286 286 286 286 287 288 289 289 289 290 291 293 293 293 293 293 294 295 296 297 298 299 299
Height
5868 5866 5863 5861 5858 5856 5855 5855 5854 5856 5857 5858 5860 5862 5864 5866 5868 5870 5873 5875 5877 5880 5881 5883 5885 5886 5887 5888 5889 5890 5890 5891 5892 5893 5893 5893 5894 5894 5894 5894 5894 5894 5894
5867 5864 5862 5860 5858 5856 5855 5854 5854 5856 5857 5858 5859 5861 5863 5864 5866 5869 5871 5874 5876 5878 5880 5882 5884 5885 5886 5887 5888 5889 5890 5891 5891 5892 5893 5893 5894 5894 5894 5894 5894 5894 5894
5865 5863 5861 5859 5857 5855 5854 5854 5854 5855 5856 5856 5858 5860 5861 5863 5865 5867 5870 5872 5874 5876 5878 5881 5882 5883 5885 5886 5887 5888 5889 5890 5891 5891 5892 5893 5893 5893 5894 5894 5894 5894 5894
5863 5861 5859 5857 5856 5855 5854 5854 5854 5855 5855 5856 5857 5859 5860 5862 5864 5866 5868 5870 5873 5875 5877 5879 5881 5882 5883 5884 5886 5887 5888 5889 5890 5890 5891 5892 5892 5892 5893 5893 5893 5893 5893
5862 5860 5858 5857 5856 5855 5854 5853 5853 5854 5855 5855 5856 5858 5859 5861 5863 5865 5867 5869 5871 5873 5876 5877 5879 5880 5882 5883 5884 5885 5886 5887 5888 5889 5889 5890 5890 5891 5891 5891 5892 5892 5891
5861 5859 5857 5856 5855 5854 5854 5853 5853 5853 5854 5855 5856 5857 5858 5860 5862 5863 5865 5867 5869 5871 5873 5875 5877 5878 5880 5881 5882 5883 5884 5885 5886 5887 5888 5888 5888 5889 5889 5889 5890 5890 5890
5860 5858 5857 5856 5855 5854 5853 5853 5853 5853 5854 5854 5855 5856 5857 5859 5860 5862 5864 5866 5868 5869 5871 5873 5875 5876 5878 5879 5880 5881 5882 5883 5884 5884 5885 5886 5886 5887 5887 5887 5887 5887 5887
5859 5857 5856 5855 5854 5853 5853 5853 5853 5853 5853 5854 5854 5855 5856 5857 5859 5860 5862 5864 5866 5868 5869 5871 5872 5874 5875 5876 5878 5879 5879 5880 5881 5881 5882 5883 5883 5884 5884 5884 5884 5884 5884
5858 5856 5856 5855 5854 5853 5852 5852 5853 5853 5853 5853 5854 5855 5856 5857 5858 5859 5861 5862 5864 5866 5867 5868 5870 5871 5872 5873 5874 5875 5876 5877 5878 5878 5879 5879 5880 5880 5880 5880 5880 5881 5880
5857 5856 5855 5854 5853 5853 5852 5852 5852 5853 5853 5853 5853 5854 5855 5856 5857 5858 5859 5860 5862 5863 5864 5865 5867 5868 5869 5870 5871 5872 5873 5873 5874 5875 5875 5875 5876 5876 5876 5876 5876 5875 5875
5856 5855 5855 5854 5853 5853 5852 5852 5852 5852 5852 5852 5853 5854 5854 5855 5856 5856 5857 5858 5859 5860 5861 5862 5863 5864 5865 5866 5867 5868 5869 5869 5870 5870 5871 5871 5871 5871 5871 5871 5870 5870 5870
5855 5854 5854 5854 5853 5853 5852 5852 5852 5852 5852 5852 5852 5853 5853 5854 5854 5854 5854 5855 5856 5857 5858 5859 5859 5860 5861 5862 5863 5864 5864 5865 5866 5866 5866 5866 5866 5866 5865 5865 5865 5864 5864
5853 5853 5853 5852 5852 5852 5852 5852 5851 5851 5851 5851 5851 5851 5851 5852 5852 5852 5852 5852 5853 5854 5854 5855 5855 5856 5857 5858 5858 5859 5860 5860 5860 5861 5861 5861 5861 5860 5860 5859 5858 5858 5857
5852 5851 5851 5851 5850 5850 5850 5850 5850 5850 5850 5849 5849 5849 5849 5849 5849 5849 5850 5850 5850 5851 5851 5851 5852 5852 5853 5853 5854 5854 5854 5855 5855 5855 5855 5855 5854 5854 5853 5852 5851 5850 5850
5849 5849 5849 5849 5849 5849 5849 5848 5848 5848 5848 5848 5847 5847 5846 5846 5846 5847 5847 5847 5847 5847 5847 5847 5848 5848 5848 5848 5849 5849 5849 5849 5849 5849 5849 5848 5848 5847 5846 5845 5844 5843 5842
5847 5847 5847 5847 5847 5846 5846 5846 5846 5846 5846 5845 5845 5844 5843 5843 5843 5843 5843 5843 5843 5843 5843 5843 5843 5843 5843 5843 5843 5843 5843 5843 5843 5842 5842 5841 5840 5839 5838 5837 5836 5835 5833
5843 5843 5844 5844 5844 5844 5844 5844 5843 5843 5843 5842 5842 5841 5840 5840 5840 5840 5840 5839 5839 5839 5839 5839 5838 5838 5838 5838 5838 5838 5837 5837 5836 5835 5835 5834 5833 5832 5831 5829 5828 5826 5825
5839 5839 5840 5840 5840 5840 5840 5840 5840 5840 5839 5839 5838 5838 5837 5836 5836 5835 5835 5835 5835 5835 5835 5834 5833 5833 5833 5832 5832 5831 5831 5830 5829 5828 5827 5826 5825 5824 5823 5821 5819 5818 5816
5833 5834 5835 5836 5836 5836 5836 5836 5836 5836 5836 5835 5835 5834 5833 5833 5832 5832 5831 5831 5830 5830 5830 5829 5828 5827 5827 5826 5825 5825 5824 5823 5822 5821 5820 5818 5817 5816 5814 5813 5811 5809 5807
5828 5829 5830 5830 5831 5831 5831 5831 5831 5831 5831 5831 5830 5830 5829 5828 5828 5827 5827 5826 5825 5825 5824 5823 5823 5822 5821 5820 5819 5818 5817 5816 5814 5813 5812 5811 5809 5808 5806 5804 5802 5800 5798
5823 5824 5824 5825 5825 5826 5826 5826 5826 5826 5826 5825 5825 5825 5824 5824 5823 5822 5821 5821 5820 5819 5818 5817 5817 5816 5815 5814 5812 5811 5810 5809 5807 5806 5804 5803 5801 5799 5797 5795 5793 5790 5788
5817 5817 5818 5819 5819 5819 5820 5820 5820 5820 5820 5820 5819 5819 5819 5818 5817 5817 5816 5815 5815 5814 5812 5811 5810 5809 5808 5807 5805 5804 5803 5802 5800 5799 5797 5794 5792 5790 5788 5785 5783 5780 5777
5810 5811 5812 5812 5813 5813 5813 5813 5814 5814 5814 5814 5813 5813 5812 5812 5811 5811 5810 5809 5808 5807 5806 5805 5803 5802 5801 5799 5798 5796 5795 5794 5792 5790 5788 5786 5783 5781 5778 5776 5773 5770 5767
5804 5804 5805 5806 5806 5806 5807 5807 5807 5807 5807 5807 5807 5806 5806 5805 5804 5804 5803 5802 5801 5800 5799 5798 5796 5795 5793 5792 5791 5789 5787 5785 5783 5781 5779 5777 5774 5772 5769 5766 5763 5760 5756
5796 5797 5798 5798 5799 5799 5799 5800 5800 5800 5800 5800 5800 5799 5798 5798 5797 5796 5796 5795 5794 5793 5792 5790 5789 5788 5786 5785 5783 5781 5779 5777 5774 5772 5770 5768 5765 5762 5759 5756 5753 5749 5746
5788 5789 5790 5791 5792 5792 5792 5793 5793 5793 5793 5793 5792 5792 5791 5791 5790 5789 5788 5787 5786 5785 5784 5783 5782 5780 5779 5777 5775 5773 5771 5768 5766 5764 5761 5759 5755 5752 5749 5746 5742 5739 5734